EW6791 Weather Reports


Display with metric or nautical units.
time (UTC)temp
F
wind
direction
speed
MPH
gust
MPH
rain 1hr
in
rain 24hr
in
rain mn
in
humidity
%
barometer
mb
20260507014556 40 52 4.0 11.0 0.00 0.00 0.00 44 1012.7
20260507013053 40 63 7.0 12.0 0.00 0.00 0.00 43 1012.6
20260507011556 41 47 7.0 12.0 0.00 0.00 0.00 41 1012.5
20260507010049 41 46 5.0 10.0 0.00 0.00 0.00 45 1012.3
20260507004550 41 62 6.0 15.0 0.00 0.00 0.00 42 1012.1
20260507003048 41 51 1.0 14.0 0.00 0.00 0.00 44 1011.9
20260507001547 41 46 7.0 12.0 0.00 0.00 0.00 44 1011.8
20260507000047 41 39 4.0 13.0 0.00 0.00 0.00 43 1011.5
20260506234603 41 45 7.0 14.0 0.00 0.00 0.00 43 1011.4
20260506233045 42 60 1.0 7.0 0.00 0.00 0.00 43 1011.4
20260506231544 43 46 4.0 11.0 0.00 0.00 0.00 44 1011.3
20260506230043 43 38 7.0 17.0 0.00 0.00 0.00 44 1011.4
20260506224546 44 55 2.0 11.0 0.00 0.00 0.00 44 1011.3
20260506223048 45 37 6.0 10.0 0.00 0.00 0.00 42 1011.2
20260506221542 44 58 10.0 15.0 0.00 0.00 0.00 44 1011.2
20260506220042 45 40 2.0 12.0 0.00 0.00 0.00 42 1011.1
20260506214543 45 44 6.0 12.0 0.00 0.00 0.00 42 1011.0
20260506213039 45 44 1.0 13.0 0.00 0.00 0.00 43 1011.0
20260506211537 44 56 7.0 13.0 0.00 0.00 0.00 44 1010.9
20260506210039 43 57 10.0 14.0 0.00 0.00 0.00 43 1010.9
20260506204548 43 61 5.0 13.0 0.00 0.00 0.00 44 1010.9
20260506203036 43 37 10.0 16.0 0.00 0.00 0.00 44 1011.0
20260506201538 43 44 7.0 13.0 0.00 0.00 0.00 42 1011.1
20260506200035 42 49 9.0 13.0 0.00 0.00 0.00 43 1011.2
20260506194539 43 45 4.0 12.0 0.00 0.00 0.00 42 1011.1
20260506193033 43 44 9.0 13.0 0.00 0.00 0.00 43 1011.2
20260506191531 43 55 8.0 16.0 0.00 0.00 0.00 45 1011.3
20260506190031 42 34 13.0 16.0 0.00 0.00 0.00 48 1011.4
20260506184531 42 28 12.0 17.0 0.00 0.00 0.00 47 1011.4
20260506183030 42 28 11.0 18.0 0.00 0.00 0.00 49 1011.5
20260506181529 42 38 14.0 18.0 0.00 0.00 0.00 48 1011.6
20260506180028 41 32 10.0 14.0 0.00 0.00 0.00 48 1011.5
20260506174527 41 23 10.0 16.0 0.00 0.00 0.00 50 1011.5
20260506173027 41 33 9.0 12.0 0.00 0.00 0.00 48 1011.7
20260506171536 40 31 8.0 13.0 0.00 0.00 0.00 48 1011.9
20260506170025 40 35 4.0 6.0 0.00 0.00 0.00 51 1011.9
20260506164525 39 30 3.0 6.0 0.00 0.00 0.00 50 1012.0
20260506163024 39 34 3.0 8.0 0.00 0.00 0.00 48 1012.1
20260506161524 39 28 4.0 8.0 0.00 0.00 0.00 48 1012.2
20260506160035 40 11 5.0 7.0 0.00 0.00 0.00 49 1012.2
20260506154522 40 345 2.0 7.0 0.00 0.00 0.00 48 1012.3
20260506153020 39 355 4.0 8.0 0.00 0.00 0.00 50 1012.3
20260506151619 40 14 3.0 9.0 0.00 0.00 0.00 49 1012.1
20260506150026 39 11 6.0 10.0 0.00 0.00 0.00 49 1011.8
20260506144515 39 316 4.0 11.0 0.00 0.00 0.00 50 1011.7
20260506143035 39 22 4.0 13.0 0.00 0.00 0.00 51 1011.8
20260506141513 39 300 6.0 10.0 0.00 0.00 0.00 52 1011.6
20260506140014 39 25 5.0 10.0 0.00 0.00 0.00 52 1011.4
20260506134510 39 323 5.0 9.0 0.00 0.00 0.00 52 1011.3
20260506133009 39 4 6.0 11.0 0.00 0.00 0.00 51 1011.1
20260506131513 39 29 8.0 12.0 0.00 0.00 0.00 54 1011.0
20260506130005 39 27 8.0 13.0 0.00 0.00 0.00 54 1010.9
20260506124504 39 4 9.0 12.0 0.00 0.00 0.00 52 1010.7
20260506123003 39 14 9.0 14.0 0.00 0.00 0.00 52 1010.5
20260506121501 39 360 9.0 13.0 0.00 0.00 0.00 53 1010.6
20260506114558 39 24 8.0 16.0 0.00 0.00 0.00 51 1010.7
20260506113105 40 330 7.0 15.0 0.00 0.00 0.00 51 1010.5
20260506111554 39 16 9.0 17.0 0.00 0.00 0.00 53 1010.0
20260506110059 39 16 13.0 18.0 0.00 0.00 0.00 55 1009.5
20260506104551 38 25 13.0 18.0 0.00 0.00 0.00 53 1009.3
20260506103047 38 23 15.0 19.0 0.00 0.00 0.00 54 1008.8
20260506101553 38 25 13.0 20.0 0.00 0.00 0.00 55 1008.7
20260506100042 38 8 15.0 21.0 0.00 0.00 0.00 56 1008.6
20260506094550 38 26 17.0 21.0 0.00 0.00 0.00 55 1008.5
20260506093046 39 10 16.0 21.0 0.00 0.00 0.00 56 1008.7
20260506091538 39 23 16.0 20.0 0.00 0.00 0.00 54 1008.7
20260506090038 39 20 17.0 21.0 0.00 0.00 0.00 54 1008.6
20260506084537 39 27 17.0 21.0 0.00 0.00 0.00 52 1008.5
20260506083038 39 19 17.0 23.0 0.00 0.00 0.00 55 1008.6
20260506081534 39 27 17.0 24.0 0.00 0.00 0.00 54 1008.3
20260506073031 39 33 16.0 23.0 0.00 0.00 0.00 55 1008.4
20260506071529 40 10 15.0 21.0 0.00 0.00 0.00 60 1008.6
20260506061521 41 24 19.0 24.0 0.00 0.00 0.00 54 1008.3
20260506044509 44 30 12.0 16.0 0.00 0.00 0.00 50 1008.1
20260506043005 44 32 12.0 15.0 0.00 0.00 0.00 51 1008.1
20260506041502 44 32 10.0 16.0 0.00 0.00 0.00 53 1007.8
20260506040058 44 35 12.0 17.0 0.00 0.00 0.00 52 1007.7
20260506034559 44 32 13.0 18.0 0.00 0.00 0.00 51 1007.6
20260506033110 44 33 10.0 14.0 0.00 0.00 0.00 49 1007.5
20260506031558 44 25 7.0 12.0 0.00 0.00 0.00 51 1007.2
20260506030053 43 57 3.0 8.0 0.00 0.00 0.00 49 1007.0
20260506024553 44 51 5.0 11.0 0.00 0.00 0.00 48 1007.0
20260506023051 44 66 6.0 14.0 0.00 0.00 0.00 47 1006.9
20260506021554 44 47 9.0 14.0 0.00 0.00 0.00 49 1006.9
20260506020048 44 37 11.0 20.0 0.00 0.00 0.00 54 1006.8